owner,sensor,date,latitude,longitude,dew_point_temperature,qcFlag 
ADCP,ioos:station:wmo:42887:1,2010-10-04T17:40:00Z,28.1910,-88.4960,12.7,11111222 
ADCP,ioos:station:wmo:42887:1,2010-10-04T18:00:00Z,28.1910,-88.4960,12.1,11111222 
ADCP,ioos:station:wmo:42887:1,2010-10-04T18:20:00Z,28.1910,-88.4960,12.4,11111222 
ADCP,ioos:station:wmo:42887:1,2010-10-04T18:40:00Z,28.1910,-88.4960,12.3,11111222 
ADCP,ioos:station:wmo:42887:1,2010-10-04T19:00:00Z,28.1910,-88.4960,12.2,11111222 
ADCP,ioos:station:wmo:42887:1,2010-10-04T19:20:00Z,28.1910,-88.4960,12.2,11111222 
ADCP,ioos:station:wmo:42887:1,2010-10-04T19:40:00Z,28.1910,-88.4960,12.0,11111222 
ADCP,ioos:station:wmo:42887:1,2010-10-04T20:20:00Z,28.1910,-88.4960,12.2,11111222 
ADCP,ioos:station:wmo:42887:1,2010-10-04T20:40:00Z,28.1910,-88.4960,11.6,11111222 
ADCP,ioos:station:wmo:42887:1,2010-10-04T21:00:00Z,28.1910,-88.4960,12.0,11111222 
ADCP,ioos:station:wmo:42887:1,2010-10-04T21:20:00Z,28.1910,-88.4960,12.0,11111222 
ADCP,ioos:station:wmo:42887:1,2010-10-04T21:40:00Z,28.1910,-88.4960,11.5,11111222 
ADCP,ioos:station:wmo:42887:1,2010-10-04T22:00:00Z,28.1910,-88.4960,11.6,11111222 
ADCP,ioos:station:wmo:42887:1,2010-10-04T22:20:00Z,28.1910,-88.4960,10.9,11111222 
ADCP,ioos:station:wmo:42887:1,2010-10-04T23:00:00Z,28.1910,-88.4960,11.0,11111222 
ADCP,ioos:station:wmo:42887:1,2010-10-04T23:20:00Z,28.1910,-88.4960,11.4,11111222 
ADCP,ioos:station:wmo:42887:1,2010-10-05T00:00:00Z,28.1910,-88.4960,11.2,11111222 
ADCP,ioos:station:wmo:42887:1,2010-10-05T00:20:00Z,28.1910,-88.4960,11.4,11111222 
ADCP,ioos:station:wmo:42887:1,2010-10-05T00:40:00Z,28.1910,-88.4960,11.3,11111222 
ADCP,ioos:station:wmo:42887:1,2010-10-05T01:00:00Z,28.1910,-88.4960,11.5,11111222 
ADCP,ioos:station:wmo:42887:1,2010-10-05T01:20:00Z,28.1910,-88.4960,11.3,11111222 
ADCP,ioos:station:wmo:42887:1,2010-10-05T01:40:00Z,28.1910,-88.4960,11.0,11111222 
ADCP,ioos:station:wmo:42887:1,2010-10-05T02:00:00Z,28.1910,-88.4960,10.9,11111222 
ADCP,ioos:station:wmo:42887:1,2010-10-05T02:20:00Z,28.1910,-88.4960,11.4,11111222 
ADCP,ioos:station:wmo:42887:1,2010-10-05T03:00:00Z,28.1910,-88.4960,11.1,11111222 
ADCP,ioos:station:wmo:42887:1,2010-10-05T03:20:00Z,28.1910,-88.4960,11.5,11111222 
ADCP,ioos:station:wmo:42887:1,2010-10-05T03:40:00Z,28.1910,-88.4960,11.4,11111222 
ADCP,ioos:station:wmo:42887:1,2010-10-05T04:00:00Z,28.1910,-88.4960,11.7,11111222 
ADCP,ioos:station:wmo:42887:1,2010-10-05T04:20:00Z,28.1910,-88.4960,11.8,11111222 
ADCP,ioos:station:wmo:42887:1,2010-10-05T04:40:00Z,28.1910,-88.4960,12.1,11111222 
ADCP,ioos:station:wmo:42887:1,2010-10-05T05:00:00Z,28.1910,-88.4960,11.0,11111222 
ADCP,ioos:station:wmo:42887:1,2010-10-05T05:20:00Z,28.1910,-88.4960,11.0,11111222 
ADCP,ioos:station:wmo:42887:1,2010-10-05T05:40:00Z,28.1910,-88.4960,10.9,11111222 
ADCP,ioos:station:wmo:42887:1,2010-10-05T06:00:00Z,28.1910,-88.4960,10.5,11111222 
ADCP,ioos:station:wmo:42887:1,2010-10-05T06:20:00Z,28.1910,-88.4960,10.5,11111222 
ADCP,ioos:station:wmo:42887:1,2010-10-05T06:40:00Z,28.1910,-88.4960,10.9,11111222 
ADCP,ioos:station:wmo:42887:1,2010-10-05T07:00:00Z,28.1910,-88.4960,11.1,11111222 
ADCP,ioos:station:wmo:42887:1,2010-10-05T07:20:00Z,28.1910,-88.4960,11.4,11111222 
ADCP,ioos:station:wmo:42887:1,2010-10-05T07:40:00Z,28.1910,-88.4960,11.3,11111222 
ADCP,ioos:station:wmo:42887:1,2010-10-05T08:20:00Z,28.1910,-88.4960,11.1,11111222 
ADCP,ioos:station:wmo:42887:1,2010-10-05T09:00:00Z,28.1910,-88.4960,11.2,11111222 
ADCP,ioos:station:wmo:42887:1,2010-10-05T09:20:00Z,28.1910,-88.4960,11.2,11111222 
ADCP,ioos:station:wmo:42887:1,2010-10-05T09:40:00Z,28.1910,-88.4960,11.6,11111222 
ADCP,ioos:station:wmo:42887:1,2010-10-05T10:00:00Z,28.1910,-88.4960,11.7,11111222 
ADCP,ioos:station:wmo:42887:1,2010-10-05T10:20:00Z,28.1910,-88.4960,11.6,11111222 
ADCP,ioos:station:wmo:42887:1,2010-10-05T10:40:00Z,28.1910,-88.4960,11.4,11111222 
ADCP,ioos:station:wmo:42887:1,2010-10-05T11:00:00Z,28.1910,-88.4960,11.7,11111222 
ADCP,ioos:station:wmo:42887:1,2010-10-05T11:20:00Z,28.1910,-88.4960,11.4,11111222 
ADCP,ioos:station:wmo:42887:1,2010-10-05T11:40:00Z,28.1910,-88.4960,11.5,11111222 
ADCP,ioos:station:wmo:42887:1,2010-10-05T12:00:00Z,28.1910,-88.4960,11.7,11111222 
ADCP,ioos:station:wmo:42887:1,2010-10-05T12:20:00Z,28.1910,-88.4960,11.9,11111222 
ADCP,ioos:station:wmo:42887:1,2010-10-05T13:00:00Z,28.1910,-88.4960,11.8,11111222 
ADCP,ioos:station:wmo:42887:1,2010-10-05T13:20:00Z,28.1910,-88.4960,12.0,11111222 
ADCP,ioos:station:wmo:42887:1,2010-10-05T13:40:00Z,28.1910,-88.4960,12.1,11111222 
ADCP,ioos:station:wmo:42887:1,2010-10-05T14:00:00Z,28.1910,-88.4960,12.5,11111222 
ADCP,ioos:station:wmo:42887:1,2010-10-05T14:20:00Z,28.1910,-88.4960,12.5,11111222 
ADCP,ioos:station:wmo:42887:1,2010-10-05T14:40:00Z,28.1910,-88.4960,12.4,11111222 
ADCP,ioos:station:wmo:42887:1,2010-10-05T15:00:00Z,28.1910,-88.4960,12.3,11111222 
ADCP,ioos:station:wmo:42887:1,2010-10-05T15:20:00Z,28.1910,-88.4960,12.3,11111222 
ADCP,ioos:station:wmo:42887:1,2010-10-05T15:40:00Z,28.1910,-88.4960,12.4,11111222 
ADCP,ioos:station:wmo:42887:1,2010-10-05T16:00:00Z,28.1910,-88.4960,12.8,11111222 
ADCP,ioos:station:wmo:42887:1,2010-10-05T16:20:00Z,28.1910,-88.4960,13.0,11111222 
ADCP,ioos:station:wmo:42887:1,2010-10-05T16:40:00Z,28.1910,-88.4960,12.7,11111222 
ADCP,ioos:station:wmo:42887:1,2010-10-05T17:00:00Z,28.1910,-88.4960,13.0,11111222 
ADCP,ioos:station:wmo:42887:1,2010-10-05T17:20:00Z,28.1910,-88.4960,12.6,11111222 
ADCP,ioos:station:wmo:42887:1,2010-10-05T18:00:00Z,28.1910,-88.4960,12.3,11111222 
ADCP,ioos:station:wmo:42887:1,2010-10-05T18:20:00Z,28.1910,-88.4960,12.1,11111222 
ADCP,ioos:station:wmo:42887:1,2010-10-05T18:40:00Z,28.1910,-88.4960,12.4,11111222 
ADCP,ioos:station:wmo:42887:1,2010-10-05T19:00:00Z,28.1910,-88.4960,11.6,11111222 
ADCP,ioos:station:wmo:42887:1,2010-10-05T19:20:00Z,28.1910,-88.4960,11.8,11111222 
ADCP,ioos:station:wmo:42887:1,2010-10-05T19:40:00Z,28.1910,-88.4960,12.0,11111222 
ADCP,ioos:station:wmo:42887:1,2010-10-05T20:00:00Z,28.1910,-88.4960,12.4,11111222 
ADCP,ioos:station:wmo:42887:1,2010-10-05T20:20:00Z,28.1910,-88.4960,11.9,11111222 
ADCP,ioos:station:wmo:42887:1,2010-10-05T20:40:00Z,28.1910,-88.4960,10.8,11111222 
ADCP,ioos:station:wmo:42887:1,2010-10-05T21:00:00Z,28.1910,-88.4960,10.8,11111222 
ADCP,ioos:station:wmo:42887:1,2010-10-05T21:20:00Z,28.1910,-88.4960,9.6,11111222 
ADCP,ioos:station:wmo:42887:1,2010-10-05T22:00:00Z,28.1910,-88.4960,10.8,11111222 
ADCP,ioos:station:wmo:42887:1,2010-10-05T22:20:00Z,28.1910,-88.4960,10.3,11111222 
ADCP,ioos:station:wmo:42887:1,2010-10-05T23:00:00Z,28.1910,-88.4960,10.5,11111222 
ADCP,ioos:station:wmo:42887:1,2010-10-05T23:20:00Z,28.1910,-88.4960,10.2,11111222 
ADCP,ioos:station:wmo:42887:1,2010-10-05T23:40:00Z,28.1910,-88.4960,10.9,11111222 
ADCP,ioos:station:wmo:42887:1,2010-10-06T00:00:00Z,28.1910,-88.4960,13.7,11111222 
ADCP,ioos:station:wmo:42887:1,2010-10-06T00:20:00Z,28.1910,-88.4960,10.8,11111222 
ADCP,ioos:station:wmo:42887:1,2010-10-06T01:00:00Z,28.1910,-88.4960,11.6,11111222 
ADCP,ioos:station:wmo:42887:1,2010-10-06T01:20:00Z,28.1910,-88.4960,11.1,11111222 
ADCP,ioos:station:wmo:42887:1,2010-10-06T02:00:00Z,28.1910,-88.4960,11.6,11111222 
ADCP,ioos:station:wmo:42887:1,2010-10-06T02:20:00Z,28.1910,-88.4960,11.7,11111222 
ADCP,ioos:station:wmo:42887:1,2010-10-06T02:40:00Z,28.1910,-88.4960,11.9,11111222 
ADCP,ioos:station:wmo:42887:1,2010-10-06T03:00:00Z,28.1910,-88.4960,12.1,11111222 
ADCP,ioos:station:wmo:42887:1,2010-10-06T03:20:00Z,28.1910,-88.4960,11.5,11111222 
ADCP,ioos:station:wmo:42887:1,2010-10-06T03:40:00Z,28.1910,-88.4960,10.8,11111222 
ADCP,ioos:station:wmo:42887:1,2010-10-06T04:00:00Z,28.1910,-88.4960,11.0,11111222 
ADCP,ioos:station:wmo:42887:1,2010-10-06T04:40:00Z,28.1910,-88.4960,11.1,11111222 
ADCP,ioos:station:wmo:42887:1,2010-10-06T05:00:00Z,28.1910,-88.4960,11.4,11111222 
ADCP,ioos:station:wmo:42887:1,2010-10-06T05:20:00Z,28.1910,-88.4960,12.1,11111222 
ADCP,ioos:station:wmo:42887:1,2010-10-06T06:00:00Z,28.1910,-88.4960,12.0,11111222 
ADCP,ioos:station:wmo:42887:1,2010-10-06T06:20:00Z,28.1910,-88.4960,12.5,11111222 
ADCP,ioos:station:wmo:42887:1,2010-10-06T06:40:00Z,28.1910,-88.4960,11.9,11111222 
ADCP,ioos:station:wmo:42887:1,2010-10-06T07:00:00Z,28.1910,-88.4960,12.5,11111222 
ADCP,ioos:station:wmo:42887:1,2010-10-06T07:20:00Z,28.1910,-88.4960,12.2,11111222 
ADCP,ioos:station:wmo:42887:1,2010-10-06T07:40:00Z,28.1910,-88.4960,12.0,11111222 
ADCP,ioos:station:wmo:42887:1,2010-10-06T08:00:00Z,28.1910,-88.4960,12.2,11111222 
ADCP,ioos:station:wmo:42887:1,2010-10-06T08:20:00Z,28.1910,-88.4960,11.8,11111222 
ADCP,ioos:station:wmo:42887:1,2010-10-06T08:40:00Z,28.1910,-88.4960,12.0,11111222 
ADCP,ioos:station:wmo:42887:1,2010-10-06T09:00:00Z,28.1910,-88.4960,11.7,11111222 
ADCP,ioos:station:wmo:42887:1,2010-10-06T09:20:00Z,28.1910,-88.4960,12.1,11111222 
ADCP,ioos:station:wmo:42887:1,2010-10-06T09:40:00Z,28.1910,-88.4960,12.3,11111222 
ADCP,ioos:station:wmo:42887:1,2010-10-06T10:00:00Z,28.1910,-88.4960,12.2,11111222 
ADCP,ioos:station:wmo:42887:1,2010-10-06T10:20:00Z,28.1910,-88.4960,12.1,11111222 
ADCP,ioos:station:wmo:42887:1,2010-10-06T11:00:00Z,28.1910,-88.4960,11.9,11111222 
ADCP,ioos:station:wmo:42887:1,2010-10-06T11:20:00Z,28.1910,-88.4960,11.7,11111222 
ADCP,ioos:station:wmo:42887:1,2010-10-06T11:40:00Z,28.1910,-88.4960,11.9,11111222 
ADCP,ioos:station:wmo:42887:1,2010-10-06T12:00:00Z,28.1910,-88.4960,11.5,11111222 
ADCP,ioos:station:wmo:42887:1,2010-10-06T12:20:00Z,28.1910,-88.4960,11.9,11111222 
ADCP,ioos:station:wmo:42887:1,2010-10-06T12:40:00Z,28.1910,-88.4960,11.8,11111222 
ADCP,ioos:station:wmo:42887:1,2010-10-06T13:00:00Z,28.1910,-88.4960,12.2,11111222 
ADCP,ioos:station:wmo:42887:1,2010-10-06T13:20:00Z,28.1910,-88.4960,12.1,11111222 
ADCP,ioos:station:wmo:42887:1,2010-10-06T14:00:00Z,28.1910,-88.4960,11.8,11111222 
ADCP,ioos:station:wmo:42887:1,2010-10-06T14:20:00Z,28.1910,-88.4960,11.9,11111222 
ADCP,ioos:station:wmo:42887:1,2010-10-06T14:40:00Z,28.1910,-88.4960,11.8,11111222 
ADCP,ioos:station:wmo:42887:1,2010-10-06T15:00:00Z,28.1910,-88.4960,12.3,11111222 
ADCP,ioos:station:wmo:42887:1,2010-10-06T15:20:00Z,28.1910,-88.4960,12.1,11111222 
ADCP,ioos:station:wmo:42887:1,2010-10-06T15:40:00Z,28.1910,-88.4960,11.9,11111222 
ADCP,ioos:station:wmo:42887:1,2010-10-06T16:00:00Z,28.1910,-88.4960,12.1,11111222 
ADCP,ioos:station:wmo:42887:1,2010-10-06T16:20:00Z,28.1910,-88.4960,12.4,11111222 
ADCP,ioos:station:wmo:42887:1,2010-10-06T17:00:00Z,28.1910,-88.4960,12.4,11111222 
ADCP,ioos:station:wmo:42887:1,2010-10-06T17:20:00Z,28.1910,-88.4960,12.5,11111222 
ADCP,ioos:station:wmo:42887:1,2010-10-06T18:00:00Z,28.1910,-88.4960,13.2,11111222 
ADCP,ioos:station:wmo:42887:1,2010-10-06T18:20:00Z,28.1910,-88.4960,13.3,11111222 
ADCP,ioos:station:wmo:42887:1,2010-10-06T18:40:00Z,28.1910,-88.4960,13.0,11111222 
ADCP,ioos:station:wmo:42887:1,2010-10-06T19:00:00Z,28.1910,-88.4960,12.8,11111222 
ADCP,ioos:station:wmo:42887:1,2010-10-06T19:20:00Z,28.1910,-88.4960,12.7,11111222 
ADCP,ioos:station:wmo:42887:1,2010-10-06T20:00:00Z,28.1910,-88.4960,12.8,11111222 
ADCP,ioos:station:wmo:42887:1,2010-10-06T20:20:00Z,28.1910,-88.4960,12.7,11111222 
ADCP,ioos:station:wmo:42887:1,2010-10-06T21:00:00Z,28.1910,-88.4960,12.7,11111222 
ADCP,ioos:station:wmo:42887:1,2010-10-06T21:20:00Z,28.1910,-88.4960,12.8,11111222 
ADCP,ioos:station:wmo:42887:1,2010-10-06T21:40:00Z,28.1910,-88.4960,13.1,11111222 
ADCP,ioos:station:wmo:42887:1,2010-10-06T22:00:00Z,28.1910,-88.4960,13.1,11111222 
ADCP,ioos:station:wmo:42887:1,2010-10-06T22:20:00Z,28.1910,-88.4960,13.1,11111222 
ADCP,ioos:station:wmo:42887:1,2010-10-06T23:00:00Z,28.1910,-88.4960,12.9,11111222 
ADCP,ioos:station:wmo:42887:1,2010-10-06T23:20:00Z,28.1910,-88.4960,12.8,11111222 
ADCP,ioos:station:wmo:42887:1,2010-10-06T23:40:00Z,28.1910,-88.4960,12.9,11111222 
ADCP,ioos:station:wmo:42887:1,2010-10-07T00:00:00Z,28.1910,-88.4960,12.4,11111222 
ADCP,ioos:station:wmo:42887:1,2010-10-07T00:20:00Z,28.1910,-88.4960,11.8,11111222 
ADCP,ioos:station:wmo:42887:1,2010-10-07T01:00:00Z,28.1910,-88.4960,11.0,11111222 
ADCP,ioos:station:wmo:42887:1,2010-10-07T01:20:00Z,28.1910,-88.4960,10.9,11111222 
ADCP,ioos:station:wmo:42887:1,2010-10-07T01:40:00Z,28.1910,-88.4960,10.6,11111222 
ADCP,ioos:station:wmo:42887:1,2010-10-07T02:00:00Z,28.1910,-88.4960,11.0,11111222 
ADCP,ioos:station:wmo:42887:1,2010-10-07T02:20:00Z,28.1910,-88.4960,11.3,11111222 
ADCP,ioos:station:wmo:42887:1,2010-10-07T03:00:00Z,28.1910,-88.4960,11.2,11111222 
ADCP,ioos:station:wmo:42887:1,2010-10-07T03:20:00Z,28.1910,-88.4960,11.2,11111222 
ADCP,ioos:station:wmo:42887:1,2010-10-07T03:40:00Z,28.1910,-88.4960,11.0,11111222 
ADCP,ioos:station:wmo:42887:1,2010-10-07T04:00:00Z,28.1910,-88.4960,11.0,11111222 
ADCP,ioos:station:wmo:42887:1,2010-10-07T04:20:00Z,28.1910,-88.4960,10.8,11111222 
ADCP,ioos:station:wmo:42887:1,2010-10-07T04:40:00Z,28.1910,-88.4960,10.4,11111222 
ADCP,ioos:station:wmo:42887:1,2010-10-07T05:00:00Z,28.1910,-88.4960,10.4,11111222 
ADCP,ioos:station:wmo:42887:1,2010-10-07T05:20:00Z,28.1910,-88.4960,10.4,11111222 
ADCP,ioos:station:wmo:42887:1,2010-10-07T05:40:00Z,28.1910,-88.4960,10.3,11111222 
ADCP,ioos:station:wmo:42887:1,2010-10-07T06:00:00Z,28.1910,-88.4960,10.6,11111222 
ADCP,ioos:station:wmo:42887:1,2010-10-07T06:20:00Z,28.1910,-88.4960,10.7,11111222 
ADCP,ioos:station:wmo:42887:1,2010-10-07T07:00:00Z,28.1910,-88.4960,12.6,11111222 
ADCP,ioos:station:wmo:42887:1,2010-10-07T07:20:00Z,28.1910,-88.4960,12.6,11111222 
ADCP,ioos:station:wmo:42887:1,2010-10-07T07:40:00Z,28.1910,-88.4960,12.6,11111222 
ADCP,ioos:station:wmo:42887:1,2010-10-07T08:00:00Z,28.1910,-88.4960,12.5,11111222 
ADCP,ioos:station:wmo:42887:1,2010-10-07T08:20:00Z,28.1910,-88.4960,12.5,11111222 
ADCP,ioos:station:wmo:42887:1,2010-10-07T08:40:00Z,28.1910,-88.4960,12.5,11111222 
ADCP,ioos:station:wmo:42887:1,2010-10-07T09:00:00Z,28.1910,-88.4960,12.6,11111222 
ADCP,ioos:station:wmo:42887:1,2010-10-07T09:20:00Z,28.1910,-88.4960,12.5,11111222 
ADCP,ioos:station:wmo:42887:1,2010-10-07T09:40:00Z,28.1910,-88.4960,12.7,11111222 
ADCP,ioos:station:wmo:42887:1,2010-10-07T10:00:00Z,28.1910,-88.4960,12.6,11111222 
ADCP,ioos:station:wmo:42887:1,2010-10-07T10:20:00Z,28.1910,-88.4960,12.8,11111222 
ADCP,ioos:station:wmo:42887:1,2010-10-07T11:00:00Z,28.1910,-88.4960,9.5,11111222 
ADCP,ioos:station:wmo:42887:1,2010-10-07T11:20:00Z,28.1910,-88.4960,8.7,11111222 
ADCP,ioos:station:wmo:42887:1,2010-10-07T12:00:00Z,28.1910,-88.4960,9.0,11111222 
ADCP,ioos:station:wmo:42887:1,2010-10-07T12:20:00Z,28.1910,-88.4960,9.2,11111222 
ADCP,ioos:station:wmo:42887:1,2010-10-07T12:40:00Z,28.1910,-88.4960,9.4,11111222 
ADCP,ioos:station:wmo:42887:1,2010-10-07T13:00:00Z,28.1910,-88.4960,9.0,11111222 
ADCP,ioos:station:wmo:42887:1,2010-10-07T13:20:00Z,28.1910,-88.4960,9.3,11111222 
ADCP,ioos:station:wmo:42887:1,2010-10-07T14:00:00Z,28.1910,-88.4960,9.5,11111222 
ADCP,ioos:station:wmo:42887:1,2010-10-07T14:20:00Z,28.1910,-88.4960,9.7,11111222 
ADCP,ioos:station:wmo:42887:1,2010-10-07T15:20:00Z,28.1910,-88.4960,11.0,11111222 
ADCP,ioos:station:wmo:42887:1,2010-10-07T15:40:00Z,28.1910,-88.4960,10.8,11111222 
ADCP,ioos:station:wmo:42887:1,2010-10-07T16:00:00Z,28.1910,-88.4960,11.1,11111222 
ADCP,ioos:station:wmo:42887:1,2010-10-07T16:20:00Z,28.1910,-88.4960,11.0,11111222 
ADCP,ioos:station:wmo:42887:1,2010-10-07T16:40:00Z,28.1910,-88.4960,11.3,11111222 
ADCP,ioos:station:wmo:42887:1,2010-10-07T17:00:00Z,28.1910,-88.4960,11.3,11111222 
ADCP,ioos:station:wmo:42887:1,2010-10-07T17:20:00Z,28.1910,-88.4960,11.9,11111222 
ADCP,ioos:station:wmo:42887:1,2010-10-07T18:00:00Z,28.1910,-88.4960,11.6,11111222 
ADCP,ioos:station:wmo:42887:1,2010-10-07T18:20:00Z,28.1910,-88.4960,11.7,11111222 
ADCP,ioos:station:wmo:42887:1,2010-10-07T18:40:00Z,28.1910,-88.4960,11.6,11111222 
ADCP,ioos:station:wmo:42887:1,2010-10-07T19:00:00Z,28.1910,-88.4960,11.3,11111222 
ADCP,ioos:station:wmo:42887:1,2010-10-07T19:20:00Z,28.1910,-88.4960,11.6,11111222 
ADCP,ioos:station:wmo:42887:1,2010-10-07T19:40:00Z,28.1910,-88.4960,11.2,11111222 
ADCP,ioos:station:wmo:42887:1,2010-10-07T20:00:00Z,28.1910,-88.4960,11.7,11111222 
ADCP,ioos:station:wmo:42887:1,2010-10-07T20:20:00Z,28.1910,-88.4960,11.9,11111222 
ADCP,ioos:station:wmo:42887:1,2010-10-07T21:00:00Z,28.1910,-88.4960,11.9,11111222 
ADCP,ioos:station:wmo:42887:1,2010-10-07T21:20:00Z,28.1910,-88.4960,13.3,11111222 
ADCP,ioos:station:wmo:42887:1,2010-10-07T21:40:00Z,28.1910,-88.4960,14.2,11111222 
ADCP,ioos:station:wmo:42887:1,2010-10-07T22:00:00Z,28.1910,-88.4960,14.4,11111222 
ADCP,ioos:station:wmo:42887:1,2010-10-07T22:20:00Z,28.1910,-88.4960,14.5,11111222 
ADCP,ioos:station:wmo:42887:1,2010-10-07T23:00:00Z,28.1910,-88.4960,14.3,11111222 
ADCP,ioos:station:wmo:42887:1,2010-10-07T23:20:00Z,28.1910,-88.4960,14.1,11111222 
ADCP,ioos:station:wmo:42887:1,2010-10-07T23:40:00Z,28.1910,-88.4960,13.7,11111222 
ADCP,ioos:station:wmo:42887:1,2010-10-08T00:00:00Z,28.1910,-88.4960,13.4,11111222 
ADCP,ioos:station:wmo:42887:1,2010-10-08T00:20:00Z,28.1910,-88.4960,12.9,11111222 
ADCP,ioos:station:wmo:42887:1,2010-10-08T00:40:00Z,28.1910,-88.4960,12.4,11111222 
ADCP,ioos:station:wmo:42887:1,2010-10-08T01:00:00Z,28.1910,-88.4960,11.8,11111222 
ADCP,ioos:station:wmo:42887:1,2010-10-08T01:20:00Z,28.1910,-88.4960,13.0,11111222 
ADCP,ioos:station:wmo:42887:1,2010-10-08T01:40:00Z,28.1910,-88.4960,12.6,11111222 
ADCP,ioos:station:wmo:42887:1,2010-10-08T02:00:00Z,28.1910,-88.4960,12.5,11111222 
ADCP,ioos:station:wmo:42887:1,2010-10-08T02:20:00Z,28.1910,-88.4960,12.1,11111222 
ADCP,ioos:station:wmo:42887:1,2010-10-08T02:40:00Z,28.1910,-88.4960,11.3,11111222 
ADCP,ioos:station:wmo:42887:1,2010-10-08T03:00:00Z,28.1910,-88.4960,10.9,11111222 
ADCP,ioos:station:wmo:42887:1,2010-10-08T03:20:00Z,28.1910,-88.4960,11.4,11111222 
ADCP,ioos:station:wmo:42887:1,2010-10-08T04:00:00Z,28.1910,-88.4960,11.4,11111222 
ADCP,ioos:station:wmo:42887:1,2010-10-08T04:20:00Z,28.1910,-88.4960,11.6,11111222 
ADCP,ioos:station:wmo:42887:1,2010-10-08T04:40:00Z,28.1910,-88.4960,11.7,11111222 
ADCP,ioos:station:wmo:42887:1,2010-10-08T05:00:00Z,28.1910,-88.4960,11.7,11111222 
ADCP,ioos:station:wmo:42887:1,2010-10-08T05:20:00Z,28.1910,-88.4960,11.4,11111222 
ADCP,ioos:station:wmo:42887:1,2010-10-08T06:00:00Z,28.1910,-88.4960,12.0,11111222 
ADCP,ioos:station:wmo:42887:1,2010-10-08T06:20:00Z,28.1910,-88.4960,12.2,11111222 
ADCP,ioos:station:wmo:42887:1,2010-10-08T06:40:00Z,28.1910,-88.4960,12.8,11111222 
ADCP,ioos:station:wmo:42887:1,2010-10-08T07:00:00Z,28.1910,-88.4960,13.5,11111222 
ADCP,ioos:station:wmo:42887:1,2010-10-08T07:40:00Z,28.1910,-88.4960,12.8,11111222 
ADCP,ioos:station:wmo:42887:1,2010-10-08T08:00:00Z,28.1910,-88.4960,12.8,11111222 
ADCP,ioos:station:wmo:42887:1,2010-10-08T08:20:00Z,28.1910,-88.4960,12.6,11111222 
ADCP,ioos:station:wmo:42887:1,2010-10-08T08:40:00Z,28.1910,-88.4960,12.6,11111222 
ADCP,ioos:station:wmo:42887:1,2010-10-08T09:00:00Z,28.1910,-88.4960,12.5,11111222 
ADCP,ioos:station:wmo:42887:1,2010-10-08T09:20:00Z,28.1910,-88.4960,13.0,11111222 
ADCP,ioos:station:wmo:42887:1,2010-10-08T09:40:00Z,28.1910,-88.4960,12.7,11111222 
ADCP,ioos:station:wmo:42887:1,2010-10-08T10:20:00Z,28.1910,-88.4960,13.4,11111222 
ADCP,ioos:station:wmo:42887:1,2010-10-08T10:40:00Z,28.1910,-88.4960,13.9,11111222 
ADCP,ioos:station:wmo:42887:1,2010-10-08T11:00:00Z,28.1910,-88.4960,14.2,11111222 
ADCP,ioos:station:wmo:42887:1,2010-10-08T11:20:00Z,28.1910,-88.4960,14.1,11111222 
ADCP,ioos:station:wmo:42887:1,2010-10-08T11:40:00Z,28.1910,-88.4960,14.0,11111222 
ADCP,ioos:station:wmo:42887:1,2010-10-08T12:00:00Z,28.1910,-88.4960,14.2,11111222 
ADCP,ioos:station:wmo:42887:1,2010-10-08T12:20:00Z,28.1910,-88.4960,14.2,11111222 
ADCP,ioos:station:wmo:42887:1,2010-10-08T12:40:00Z,28.1910,-88.4960,14.5,11111222 
ADCP,ioos:station:wmo:42887:1,2010-10-08T13:00:00Z,28.1910,-88.4960,14.4,11111222 
ADCP,ioos:station:wmo:42887:1,2010-10-08T13:20:00Z,28.1910,-88.4960,14.4,11111222 
ADCP,ioos:station:wmo:42887:1,2010-10-08T14:00:00Z,28.1910,-88.4960,15.1,11111222 
ADCP,ioos:station:wmo:42887:1,2010-10-08T14:20:00Z,28.1910,-88.4960,15.1,11111222 
ADCP,ioos:station:wmo:42887:1,2010-10-08T14:40:00Z,28.1910,-88.4960,15.3,11111222 
ADCP,ioos:station:wmo:42887:1,2010-10-08T15:00:00Z,28.1910,-88.4960,15.3,11111222 
ADCP,ioos:station:wmo:42887:1,2010-10-08T15:20:00Z,28.1910,-88.4960,15.0,11111222 
ADCP,ioos:station:wmo:42887:1,2010-10-08T15:40:00Z,28.1910,-88.4960,15.0,11111222 
ADCP,ioos:station:wmo:42887:1,2010-10-08T16:00:00Z,28.1910,-88.4960,15.5,11111222 
ADCP,ioos:station:wmo:42887:1,2010-10-08T16:20:00Z,28.1910,-88.4960,16.0,11111222 
ADCP,ioos:station:wmo:42887:1,2010-10-08T16:40:00Z,28.1910,-88.4960,16.2,11111222 
ADCP,ioos:station:wmo:42887:1,2010-10-08T17:00:00Z,28.1910,-88.4960,16.4,11111222 
ADCP,ioos:station:wmo:42887:1,2010-10-08T17:20:00Z,28.1910,-88.4960,16.6,11111222 
ADCP,ioos:station:wmo:42887:1,2010-10-08T17:40:00Z,28.1910,-88.4960,16.6,11111222 
ADCP,ioos:station:wmo:42887:1,2010-10-08T18:00:00Z,28.1910,-88.4960,16.3,11111222 
ADCP,ioos:station:wmo:42887:1,2010-10-08T18:20:00Z,28.1910,-88.4960,16.2,11111222 
ADCP,ioos:station:wmo:42887:1,2010-10-08T18:40:00Z,28.1910,-88.4960,16.3,11111222 
ADCP,ioos:station:wmo:42887:1,2010-10-08T19:00:00Z,28.1910,-88.4960,16.4,11111222 
ADCP,ioos:station:wmo:42887:1,2010-10-08T19:20:00Z,28.1910,-88.4960,16.0,11111222 
ADCP,ioos:station:wmo:42887:1,2010-10-08T19:40:00Z,28.1910,-88.4960,15.8,11111222 
ADCP,ioos:station:wmo:42887:1,2010-10-08T20:00:00Z,28.1910,-88.4960,16.2,11111222 
ADCP,ioos:station:wmo:42887:1,2010-10-08T20:20:00Z,28.1910,-88.4960,16.0,11111222 
ADCP,ioos:station:wmo:42887:1,2010-10-08T21:00:00Z,28.1910,-88.4960,16.0,11111222 
ADCP,ioos:station:wmo:42887:1,2010-10-08T21:20:00Z,28.1910,-88.4960,15.8,11111222 
ADCP,ioos:station:wmo:42887:1,2010-10-08T22:00:00Z,28.1910,-88.4960,15.9,11111222 
ADCP,ioos:station:wmo:42887:1,2010-10-08T22:20:00Z,28.1910,-88.4960,15.8,11111222 
ADCP,ioos:station:wmo:42887:1,2010-10-08T22:40:00Z,28.1910,-88.4960,15.6,11111222 
ADCP,ioos:station:wmo:42887:1,2010-10-08T23:20:00Z,28.1910,-88.4960,15.6,11111222 
ADCP,ioos:station:wmo:42887:1,2010-10-09T00:00:00Z,28.1910,-88.4960,15.2,11111222 
ADCP,ioos:station:wmo:42887:1,2010-10-09T00:20:00Z,28.1910,-88.4960,14.7,11111222 
ADCP,ioos:station:wmo:42887:1,2010-10-09T00:40:00Z,28.1910,-88.4960,14.4,11111222 
ADCP,ioos:station:wmo:42887:1,2010-10-09T01:00:00Z,28.1910,-88.4960,14.5,11111222 
ADCP,ioos:station:wmo:42887:1,2010-10-09T01:20:00Z,28.1910,-88.4960,13.9,11111222 
ADCP,ioos:station:wmo:42887:1,2010-10-09T01:40:00Z,28.1910,-88.4960,14.1,11111222 
ADCP,ioos:station:wmo:42887:1,2010-10-09T02:00:00Z,28.1910,-88.4960,14.4,11111222 
ADCP,ioos:station:wmo:42887:1,2010-10-09T02:20:00Z,28.1910,-88.4960,15.1,11111222 
ADCP,ioos:station:wmo:42887:1,2010-10-09T02:40:00Z,28.1910,-88.4960,15.2,11111222 
ADCP,ioos:station:wmo:42887:1,2010-10-09T03:00:00Z,28.1910,-88.4960,15.2,11111222 
ADCP,ioos:station:wmo:42887:1,2010-10-09T03:20:00Z,28.1910,-88.4960,15.6,11111222 
ADCP,ioos:station:wmo:42887:1,2010-10-09T03:40:00Z,28.1910,-88.4960,14.8,11111222 
ADCP,ioos:station:wmo:42887:1,2010-10-09T04:00:00Z,28.1910,-88.4960,15.1,11111222 
ADCP,ioos:station:wmo:42887:1,2010-10-09T04:20:00Z,28.1910,-88.4960,14.6,11111222 
ADCP,ioos:station:wmo:42887:1,2010-10-09T04:40:00Z,28.1910,-88.4960,14.0,11111222 
ADCP,ioos:station:wmo:42887:1,2010-10-09T05:00:00Z,28.1910,-88.4960,13.8,11111222 
ADCP,ioos:station:wmo:42887:1,2010-10-09T05:20:00Z,28.1910,-88.4960,13.2,11111222 
ADCP,ioos:station:wmo:42887:1,2010-10-09T05:40:00Z,28.1910,-88.4960,13.2,11111222 
ADCP,ioos:station:wmo:42887:1,2010-10-09T06:00:00Z,28.1910,-88.4960,13.1,11111222 
ADCP,ioos:station:wmo:42887:1,2010-10-09T06:20:00Z,28.1910,-88.4960,12.0,11111222 
ADCP,ioos:station:wmo:42887:1,2010-10-09T07:00:00Z,28.1910,-88.4960,11.9,11111222 
ADCP,ioos:station:wmo:42887:1,2010-10-09T07:20:00Z,28.1910,-88.4960,12.1,11111222 